sat.trackr.live / text

‹ back to catalog

STARLINK-35360

NORAD 66444 · 2025-259Y

PAYLOAD ACTIVE UNKNOWN

§ Identity

Operator
Country
US
Launch date
2025-11-11
Launch site
AFETR
Launch vehicle
Mass (kg)
RCS (m²)

Purposes: comms

External: N2YO · Heavens-Above · Gunter

§ Orbital elements

Epoch: 2026-09-20T08:01:50.786112Z

Period
94.27 min
Inclination
42.9972°
Eccentricity
0.0001412
Mean motion
15.27591756 rev/d
Perigee alt
482.0 km
Apogee alt
484.0 km
Semi-major
6,861.2 km
B*
5.2937e-4
RAAN
254.7462°
Arg perigee
279.4958°
Mean anomaly
80.5734°
Rev number
4,926

§ Raw data

STARLINK-353601 66444U 25259Y   26263.33461558  .00014339  00000+0  52937-3 0  99992 66444  42.9972 254.7462 0001412 279.4958  80.5734 15.27591756 49267

JSON: /api/v1/satellites/66444 · /tle

For live sub-satellite position, see the globe view (requires WebGL).

§ Visibility from observer

Set your observer location to see the next 7 days of passes ≥ 10°. The values pass through the URL so the page stays shareable.

No JS? Fill the form by hand. The geolocation button needs JavaScript.